This demonstration page uses our WeatherBlox Daily Observations layout. Learn more.

Left ArrowRight Arrow

Hourly Observations for October 31, 2021

Temp ( °F °C ) Dew Point ( °F °C ) Humidity (%) Winds ( mph kmh ) Pressure ( in mb ) Visibility ( mi km ) Precip ( " mm )
12:56 am 00:56 Clear 42 5.6 35 1.7 76 76 N 18 30 30.14 1021 10 16 N/A
1:56 am 01:56 Partly Cloudy 41 5 35 1.7 79 79 N 14 22 30.16 1021 10 16 N/A
2:56 am 02:56 Mostly Cloudy 40 4.4 35 1.7 83 83 N 10 17 30.18 1022 10 16 N/A
3:56 am 03:56 Cloudy 41 5 35 1.7 79 79 N 14 22 30.18 1022 10 16 N/A
4:56 am 04:56 Cloudy 41 5 34 1.1 76 76 N 16 26 30.19 1023 10 16 N/A
5:56 am 05:56 Cloudy 40 4.4 34 1.1 79 79 N 13 20 30.23 1024 10 16 N/A
6:56 am 06:56 Mostly Cloudy 41 5 34 1.1 76 76 N 7 11 30.26 1025 10 16 N/A
7:56 am 07:56 Cloudy 41 5 34 1.1 76 76 NNW 10 17 30.30 1026 10 16 N/A
8:56 am 08:56 Cloudy 41 5 34 1.1 76 76 N 10 17 30.31 1027 10 16 N/A
9:56 am 09:56 Cloudy 41 5 32 undefined 70 70 N 16 26 30.35 1028 10 16 N/A
10:56 am 10:56 Cloudy 41 5 29 -1.7 62 62 N 16 26 30.37 1029 10 16 N/A
11:56 am 11:56 Cloudy 41 5 29 -1.7 62 62 N 14 22 30.40 1029 10 16 N/A
12:56 pm 12:56 Mostly Cloudy 42 5.6 26 -3.3 53 53 NNE 13 20 30.39 1029 10 16 N/A
1:56 pm 13:56 Cloudy 43 6.1 25 -3.9 49 49 N 12 19 30.38 1029 10 16 N/A
2:56 pm 14:56 Cloudy 43 6.1 26 -3.3 51 51 N 9 15 30.36 1028 10 16 N/A
3:56 pm 15:56 Cloudy 43 6.1 26 -3.3 51 51 N 12 19 30.36 1028 10 16 N/A
4:56 pm 16:56 Cloudy 43 6.1 26 -3.3 51 51 N 9 15 30.36 1028 10 16 N/A
5:56 pm 17:56 Cloudy 43 6.1 27 -2.8 53 53 N 8 13 30.36 1028 10 16 N/A
6:56 pm 18:56 Cloudy 41 5 28 -2.2 60 60 N 6 9 30.36 1028 10 16 N/A
7:56 pm 19:56 Cloudy 41 5 29 -1.7 62 62 N 6 9 30.37 1029 10 16 N/A
8:56 pm 20:56 Cloudy 41 5 29 -1.7 62 62 N 7 11 30.37 1029 10 16 N/A
9:56 pm 21:56 Cloudy 40 4.4 28 -2.2 63 63 N 10 17 30.39 1029 10 16 N/A
10:56 pm 22:56 Cloudy 38 3.3 30 -1.1 73 73 NNE 8 13 30.40 1029 10 16 N/A
11:49 pm 23:49 Cloudy with Light Rain 37 3 30 -1 75 75 NE 5 7 30.44 1031 10 16 0.00 0.00
11:56 pm 23:56 Cloudy with Light Rain 37 2.8 31 -0.6 79 79 NNE 3 6 30.41 1030 10 16 0.00 0.00

Powered by AerisWeather